Flag for U.S.A. Weather past 2 weeks in Aliso Viejo, California, U.S.A.

Now
61 °F

Broken clouds.


Feels Like: 61 °F
Forecast: 58 / 67 °F
Wind: 3 mph from Northwest

Location: John Wayne Airport-Orange County Airport

Current Time: May 23, 2015 at 7:13:50 AM

Latest Report: May 23, 2015 at 7:00 AM


Visibility: 10 mi

Pressure: 30.08 "Hg

Humidity: 77%

Dew point: 54 °F

Location of Aliso ViejoLocation

Historic Weather in Aliso Viejo — Graph

°F

Aliso Viejo temperature yesterday

Maximum temperature yesterday: 67 °F (at 12:53 PM)
Minimum temperature yesterday: 58 °F (at 5:53 AM)
Average temperature yesterday: 63 °F

Past Weeks' High & Low Weather Summary

 TemperatureHumidityPressure
High71 °F (May 10, 1:53 PM)87% (May 11, 2:53 AM)30.08 "Hg (May 11, 2:53 AM)
Low53 °F (May 8, 4:53 AM)44% (May 21, 12:53 PM)29.81 "Hg (May 11, 6:53 PM)
Average62 °F68%29.97 "Hg
* Reported May 8 4:53 AM — May 23 4:53 AM, Aliso Viejo, Weather by CustomWeather, © 2015

Note: Actual official high and low records may vary slightly from our data, if they occured in-between our weather recording intervals... More about our weather records

Advertising

Aliso Viejo weather history for previous 24 hours

 ConditionsComfort  
Time TempWeatherWind HumidityBarometerVisibility
4:53 AM
Sat, May 23
60 °FOvercast.No wind80%30.06 "Hg10 mi
3:53 AM60 °FOvercast.3 mph80%30.06 "Hg10 mi
2:53 AM60 °FClear.No wind78%30.05 "Hg10 mi
1:53 AM61 °FPassing clouds.No wind78%30.06 "Hg10 mi
12:53 AM61 °FPassing clouds.3 mph81%30.06 "Hg10 mi
11:53 PM
Fri, May 22
61 °FMostly cloudy.No wind78%30.06 "Hg10 mi
10:53 PM62 °FPassing clouds.5 mph75%30.07 "Hg10 mi
9:53 PM62 °FPartly cloudy.3 mph75%30.07 "Hg10 mi
8:53 PM62 °FPartly cloudy.6 mph73%30.06 "Hg10 mi
7:53 PM62 °FBroken clouds.7 mph70%30.05 "Hg10 mi
6:53 PM63 °FBroken clouds.7 mph65%30.03 "Hg10 mi
5:53 PM64 °FBroken clouds.8 mph63%30.03 "Hg10 mi
4:53 PM65 °FBroken clouds.9 mph56%30.02 "Hg10 mi
3:53 PM66 °FBroken clouds.8 mph54%30.01 "Hg10 mi
2:53 PM65 °FPartly sunny.8 mph56%30.02 "Hg10 mi
1:53 PM66 °FOvercast.9 mph52%30.02 "Hg10 mi
12:53 PM67 °FScattered clouds.10 mph49%30.03 "Hg10 mi
11:53 AM65 °FBroken clouds.9 mph54%30.03 "Hg10 mi
10:53 AM65 °FBroken clouds.10 mph54%30.03 "Hg10 mi
9:53 AM63 °FBroken clouds.7 mph60%30.03 "Hg10 mi
8:53 AM62 °FMostly cloudy.7 mph65%30.02 "Hg10 mi
7:53 AM60 °FMostly cloudy.No wind69%30.01 "Hg10 mi
Weather by CustomWeather, © 2015

See weather overviewHow to use our weather pages